Wind_Speed
5 6 3 3 5 4 4 1 11 13 15 22 20 15 16 8 5 8 21 29 30 27 20 20 18 17 15 12 11 14 14 13 13 14 14 15 15 16 16 15 14 13 12 12 12 11 10 8 6
4 5 8 1 4 2 4 10 11 13 20 21 22 20 18 19 20 21 18 27 25 26 21 20 18 16 13 12 14 14 13 12 13 13 14 15 16 15 14 13 12 12 12 12 12 11 10 9 7
4 3 2 5 3 3 3 14 12 14 17 15 11 13 7 11 12 8 32 26 25 21 19 20 17 14 12 13 14 13 12 12 12 13 15 15 14 14 14 13 12 12 13 11 12 11 10 10 10
2 1 4 2 8 10 1 10 17 22 18 17 16 11 8 24 13 23 32 29 23 19 19 19 15 13 11 13 13 12 11 11 12 13 14 14 14 13 13 12 12 12 11 12 12 12 11 10 12
4 2 2 5 10 9 8 17 21 21 17 20 20 12 9 21 37 36 34 27 22 20 20 18 14 12 12 13 13 11 11 11 11 13 13 13 13 13 12 13 12 13 12 12 12 11 11 10 12
2 2 2 5 11 7 6 17 21 20 21 20 22 18 10 26 30 30 34 32 23 24 20 17 13 10 11 12 12 10 10 11 11 12 14 14 14 13 12 12 12 11 10 11 11 11 10 10 10
5 0 6 11 7 11 9 15 13 17 22 14 18 13 8 15 26 29 38 29 23 23 18 16 14 12 11 12 11 11 10 10 11 12 13 13 14 13 13 10 10 10 9 9 10 9 8 9 11
3 1 6 13 6 7 12 13 16 11 11 19 21 7 11 13 28 29 37 34 29 21 19 17 15 14 13 13 11 11 10 10 11 11 12 11 10 10 11 9 8 8 8 8 7 8 9 9 9
5 1 10 9 10 7 15 17 8 16 16 8 5 15 15 23 29 31 34 34 31 25 24 19 17 15 13 13 13 12 10 10 11 11 9 6 4 5 5 8 8 9 8 7 7 9 11 9 8
6 3 6 6 6 6 13 22 18 18 18 19 14 13 19 21 17 23 26 26 28 30 31 23 20 19 16 14 13 11 10 9 9 7 5 3 2 6 2 4 6 8 9 7 7 9 11 14 7
7 10 14 16 8 13 19 16 6 15 13 17 17 13 12 15 18 21 25 28 31 32 33 26 24 24 23 16 13 10 10 8 6 4 2 3 3 4 6 4 1 2 5 6 6 7 7 9 13
6 10 11 2 5 5 13 15 12 14 9 19 15 15 11 8 9 17 22 26 24 23 34 27 26 28 27 17 15 11 13 9 9 7 4 2 2 4 2 2 4 4 3 4 2 2 3 8 21
6 10 3 7 4 9 9 15 12 13 19 18 14 12 9 8 13 19 19 26 25 22 34 26 23 21 24 13 13 13 17 12 12 12 6 3 1 3 1 3 1 1 9 7 5 2 4 7 7
6 9 6 7 1 5 4 14 16 17 22 20 16 11 9 10 14 20 24 22 26 25 26 23 23 22 16 12 11 12 18 10 7 8 9 8 5 1 1 3 2 4 10 7 2 3 3 6 1
9 9 4 5 4 4 5 8 15 22 22 20 14 12 9 10 21 21 28 28 30 27 24 22 21 24 19 15 9 12 9 11 8 8 12 9 5 2 2 0 2 2 7 4 2 3 7 6 4
10 5 2 4 4 5 7 6 10 20 22 19 18 15 13 10 16 24 28 31 33 32 29 24 21 20 22 19 13 12 10 10 12 12 11 6 5 3 2 3 2 2 2 3 3 5 8 6 2
4 0 5 6 9 5 5 5 14 17 20 18 17 14 13 10 11 23 27 30 33 34 33 30 25 24 22 22 16 16 7 14 8 8 7 8 4 3 3 4 3 4 2 5 5 7 7 8 11
4 5 7 5 9 8 6 15 18 18 19 14 11 8 12 10 13 19 28 32 31 35 35 31 28 27 23 25 16 13 9 10 11 6 8 9 9 8 8 7 4 5 5 5 7 9 8 10 14
7 9 9 8 9 7 8 12 13 15 15 19 17 18 12 12 11 25 18 24 30 35 39 34 29 29 26 25 22 16 16 12 9 9 10 11 12 10 10 8 4 6 4 6 9 9 9 10 10
11 9 11 8 9 6 8 6 10 12 23 23 20 17 14 10 9 13 18 15 19 30 34 35 31 26 28 25 20 18 17 15 14 13 11 13 13 12 10 12 9 7 12 9 10 13 13 13 11
7 9 8 5 4 4 3 3 8 7 8 16 21 20 16 19 15 12 16 21 21 20 27 32 30 28 27 24 18 12 9 7 16 15 16 17 15 11 8 11 11 13 7 10 10 13 15 16 19
7 8 7 5 0 5 6 5 5 8 10 8 17 14 14 16 15 14 16 21 26 25 22 25 27 28 27 25 22 19 16 15 21 22 20 17 14 13 11 10 9 10 10 11 9 12 16 16 17
9 8 8 10 5 6 5 4 8 16 10 8 11 11 15 19 18 16 17 23 25 25 26 24 25 25 29 25 23 22 22 18 14 23 17 17 16 15 13 12 13 13 14 13 12 13 15 19 19
7 6 8 8 2 2 8 7 6 7 10 8 8 10 12 18 18 18 24 22 24 26 26 25 26 26 25 28 25 26 22 19 16 19 15 14 13 17 17 15 15 16 16 15 15 16 17 16 20
7 2 3 3 3 6 9 4 8 7 15 14 12 11 12 11 12 15 16 19 24 29 26 24 20 19 23 25 28 19 17 13 15 13 11 10 11 21 22 17 17 17 14 14 15 16 19 21 22
9 8 5 6 3 6 5 5 6 6 8 7 13 11 9 9 10 10 14 20 21 26 15 13 4 11 14 18 23 22 19 13 10 11 12 10 7 6 15 17 17 17 17 16 17 17 20 22 25
13 7 13 2 4 3 1 8 7 7 7 5 7 10 10 9 12 12 12 19 29 31 33 23 2 10 17 19 22 21 15 12 12 11 7 6 7 9 8 9 14 15 17 18 19 22 23 23 27
8 6 2 2 4 5 3 2 7 7 7 4 12 13 13 11 13 11 13 25 33 38 9 23 24 27 17 19 22 18 14 11 7 6 6 6 10 11 15 16 14 13 14 18 19 22 23 26 28
4 5 1 5 5 4 2 4 9 3 4 8 8 14 12 10 11 13 11 20 32 41 35 27 24 24 18 14 21 23 15 13 13 5 4 11 9 10 11 12 11 10 11 12 14 16 20 23 26
9 7 5 4 8 2 4 5 3 12 8 10 9 11 9 8 5 6 15 22 25 28 25 20 22 9 7 8 14 23 14 11 6 4 3 4 8 8 8 7 8 10 9 9 10 12 15 17 18
Wind_Direction
284 276 309 265 58 75 227 116 84 98 73 74 73 72 68 62 90 131 119 126 133 132 135 130 124 124 123 122 108 96 92 88 80 72 67 67 67 65 62 58 52 45 49 51 43 48 58 61 60
255 270 225 123 86 73 287 98 87 83 86 85 90 85 63 82 83 120 104 129 127 127 134 133 131 127 127 121 111 104 96 90 89 83 78 78 75 70 66 63 60 57 59 56 60 63 58 53 52
275 207 94 128 154 233 223 110 108 111 93 84 77 55 70 105 92 96 125 122 122 123 131 131 131 131 129 122 113 110 105 98 92 85 87 85 80 75 69 64 64 70 67 72 69 71 64 58 61
293 323 308 153 212 231 24 123 97 104 101 106 115 68 77 107 98 131 127 128 122 131 137 133 138 136 132 125 122 116 108 98 94 93 92 88 82 74 68 66 70 78 73 78 80 75 70 63 62
243 284 277 272 212 241 195 117 106 102 99 99 99 108 101 102 124 129 135 135 134 141 141 144 144 140 140 132 128 119 110 106 102 102 99 92 81 73 69 67 76 75 75 77 78 74 67 60 58
291 142 329 260 230 153 110 121 116 113 112 107 104 113 117 125 131 141 136 142 144 142 145 145 148 147 144 138 131 125 117 113 112 114 105 94 84 73 73 72 75 77 77 74 71 69 61 48 36
200 238 255 276 239 93 105 86 101 124 131 119 127 120 152 150 153 149 140 141 135 137 145 154 154 154 152 143 140 131 125 121 118 116 106 100 86 75 66 70 72 71 74 74 70 58 45 25 27
177 186 278 302 126 117 112 93 98 92 123 132 136 143 170 181 167 146 139 138 143 146 149 161 166 167 159 153 148 141 134 127 126 125 120 112 92 73 57 59 67 71 68 71 61 41 28 24 53
251 296 276 262 126 168 115 95 92 94 77 91 91 141 159 159 165 139 140 143 149 154 159 163 165 166 162 164 158 154 146 140 133 128 128 127 98 83 60 59 67 71 69 75 60 47 33 22 47
177 207 256 279 107 137 119 114 110 105 102 96 94 117 149 175 164 147 144 152 159 164 168 171 166 161 168 172 165 161 157 144 133 128 91 48 104 173 226 37 68 75 78 82 68 30 4 353 348
248 234 259 272 93 134 120 120 113 119 122 133 139 149 176 192 156 147 153 158 166 171 166 175 174 167 173 173 165 157 163 146 145 130 19 330 175 202 276 267 135 92 98 98 81 16 358 4 358
238 252 267 129 65 106 139 138 136 131 147 136 143 167 178 149 142 150 160 161 155 157 167 175 176 174 182 176 167 172 176 159 181 183 196 204 218 226 229 101 257 244 199 149 106 28 85 30 64
259 261 300 101 42 85 132 142 145 123 126 134 150 161 161 153 158 157 152 153 149 137 154 157 148 156 182 171 178 196 194 179 200 190 199 192 198 172 56 47 287 311 194 149 131 28 321 347 62
294 301 275 96 169 81 86 126 119 142 137 142 160 168 169 163 161 145 143 150 149 142 155 162 170 180 151 167 178 144 174 176 165 178 193 194 208 180 182 318 17 52 164 158 124 14 1 345 199
290 304 213 151 213 160 130 107 128 148 145 146 163 168 162 176 161 162 164 167 163 165 160 171 180 192 187 178 156 184 168 168 206 208 208 179 203 230 283 270 276 45 133 159 156 255 275 333 173
301 256 105 252 223 152 113 206 153 145 145 156 169 172 166 196 172 173 178 174 171 170 171 173 183 184 195 188 185 177 193 199 216 201 188 191 210 224 228 326 191 177 220 267 271 252 297 292 274
291 267 264 284 206 161 138 145 153 149 154 166 173 174 172 189 171 181 185 173 175 176 177 177 184 186 189 189 189 192 218 174 149 184 203 183 202 216 220 235 256 228 195 217 239 257 288 291 308
200 264 269 240 207 189 190 157 169 165 166 152 113 191 180 194 180 202 179 181 182 181 181 182 184 190 185 186 184 196 198 200 217 185 206 203 194 217 221 225 240 213 224 246 238 238 261 282 303
211 223 242 250 210 173 224 162 182 174 134 140 172 201 178 191 183 173 164 179 183 179 178 184 181 189 184 180 184 195 208 208 205 203 218 194 196 215 207 225 268 216 238 234 257 229 246 275 271
253 255 259 278 194 144 211 210 177 174 160 167 183 188 183 175 165 164 167 161 168 177 186 185 185 187 185 181 187 199 217 218 211 204 200 192 210 218 234 232 246 216 244 243 218 215 228 247 265
253 241 250 248 199 177 174 318 183 198 161 174 178 188 183 175 174 169 173 179 183 179 181 189 184 186 185 183 179 184 172 189 207 206 207 202 213 227 229 225 222 215 227 229 230 235 229 237 247
264 268 281 287 220 178 154 242 215 188 191 176 178 184 181 180 177 175 179 184 190 193 187 188 187 189 188 185 187 197 188 193 205 208 204 202 208 216 230 228 208 218 238 241 248 246 244 246 253
244 271 281 277 224 156 228 123 258 177 195 181 172 172 163 178 184 183 183 186 191 187 185 185 192 197 192 188 194 198 211 209 209 205 195 202 208 222 231 219 212 223 237 247 258 255 256 247 248
237 270 284 270 147 210 223 162 246 206 185 179 190 181 177 181 185 188 183 175 178 176 176 182 187 192 197 200 195 204 211 216 187 169 181 197 221 236 233 226 225 229 241 241 246 257 253 249 248
235 192 287 349 346 220 234 191 220 196 180 178 181 186 184 159 150 147 157 155 162 168 171 174 182 189 202 208 207 205 214 222 198 199 204 221 238 233 232 222 223 231 241 247 247 254 256 251 252
234 189 180 198 201 259 280 240 271 169 125 168 188 191 147 141 148 151 141 145 146 109 106 128 148 234 233 234 224 217 215 212 205 221 226 241 256 266 231 224 229 239 248 254 255 260 262 258 256
249 219 222 202 336 353 245 329 43 131 138 119 98 117 124 89 67 65 57 74 91 78 96 100 66 298 281 246 238 225 219 209 225 236 238 271 275 299 272 236 243 245 249 252 255 259 261 263 264
173 226 225 352 200 229 157 76 300 303 177 174 111 106 105 97 88 102 101 116 119 121 135 186 217 221 229 241 257 255 207 209 209 225 244 283 313 301 289 286 281 269 269 269 272 274 272 272 271
284 260 192 156 154 200 103 236 220 10 45 28 85 122 125 126 136 146 138 129 137 152 169 198 197 201 214 231 245 232 213 212 241 234 287 313 314 315 304 301 305 311 310 296 292 286 284 283 288
240 225 184 140 286 146 117 256 217 131 103 86 121 124 130 133 152 131 124 126 141 160 154 170 181 202 248 245 261 227 190 179 163 322 349 325 308 313 324 343 329 323 317 317 318 318 318 315 313
Height
772 773 773 774 807 822 823 788 761 770 772 761 761 771 783 777 788 825 807 802 804 807 813 817 819 820 822 823 825 826 827 828 828 829 829 829 830 829 829 829 828 828 827 826 826 825 825 824 825
771 772 773 778 814 837 808 766 773 766 764 760 768 776 780 791 781 797 803 806 806 808 814 818 820 822 823 824 825 826 828 830 829 829 830 830 831 831 831 831 830 830 829 829 827 827 827 826 826
770 771 779 793 816 826 807 766 764 761 757 761 773 771 782 791 788 798 803 807 809 812 816 819 822 823 825 825 827 828 829 830 830 831 831 832 833 833 833 832 832 831 831 831 830 828 828 828 828
769 771 772 793 809 791 770 760 754 765 763 763 766 791 785 786 791 799 804 807 810 815 818 820 822 823 825 826 828 829 830 831 832 833 833 834 834 834 834 834 834 833 833 832 831 831 830 830 831
769 772 798 797 792 773 759 748 752 766 772 775 772 797 794 789 795 799 801 805 809 815 819 821 823 825 826 827 829 830 832 833 834 835 835 836 836 836 836 836 836 835 835 834 833 833 832 832 833
778 771 803 803 775 752 747 746 751 761 770 778 784 791 796 793 795 798 802 805 810 814 820 823 825 827 828 828 830 832 834 834 835 836 837 838 838 839 838 838 838 837 837 837 836 835 835 834 834
780 790 799 787 773 767 756 743 754 761 771 778 778 797 795 792 794 797 801 807 811 816 820 823 825 827 828 830 832 833 834 835 836 838 839 840 840 840 839 839 839 839 839 839 838 838 837 836 836
764 778 788 766 772 776 749 748 748 758 770 768 769 796 800 789 792 797 802 806 809 814 818 822 824 826 828 830 832 833 835 836 837 838 840 841 841 841 841 841 840 840 840 841 840 840 839 838 839
751 791 794 775 764 761 748 758 750 751 764 765 768 777 782 785 790 796 803 806 809 813 815 819 821 825 827 829 831 833 835 836 837 838 840 841 842 842 841 842 842 841 841 842 842 842 842 841 842
766 789 776 741 738 751 747 753 757 763 771 777 781 781 784 786 789 794 799 805 807 810 814 816 819 822 825 828 830 832 834 836 838 839 840 841 841 841 842 843 843 843 843 843 843 843 843 841 841
755 773 748 744 732 732 750 756 752 767 783 776 785 785 784 786 788 791 795 799 803 806 811 814 816 821 824 826 828 832 834 836 837 838 840 841 841 842 842 842 843 843 843 844 843 844 843 842 840
762 746 743 732 725 734 750 747 759 760 769 768 776 781 782 784 786 789 793 797 801 805 810 813 817 821 824 826 826 829 831 833 834 836 839 840 841 841 841 841 843 843 844 843 843 844 843 843 841
754 745 733 731 727 738 742 751 758 764 763 768 777 780 782 784 786 789 792 797 800 804 810 813 815 821 824 826 826 827 830 832 832 836 838 839 840 841 841 841 841 841 842 844 844 843 843 843 844
742 740 734 731 733 735 746 752 751 763 760 769 776 780 781 784 785 789 792 797 801 804 808 811 814 818 823 825 826 826 829 831 832 834 835 837 838 839 840 841 841 841 841 843 844 844 845 845 845
740 761 737 738 738 742 738 766 764 756 761 771 777 779 780 782 784 786 789 793 797 802 805 809 813 816 819 822 824 826 828 830 831 833 833 835 837 838 840 840 841 841 841 842 843 844 844 845 846
757 748 773 746 738 740 746 790 762 754 761 771 773 775 777 781 784 785 788 790 794 798 802 806 810 814 818 820 822 824 826 828 829 831 833 834 835 837 839 840 839 840 842 842 843 843 843 843 845
761 787 776 766 741 743 751 774 758 751 758 768 770 774 777 779 782 783 786 788 792 795 799 803 806 810 815 818 820 823 824 826 828 830 831 833 835 836 837 838 839 839 840 841 842 842 843 842 842
786 785 779 774 753 748 759 765 753 749 754 766 770 775 776 777 779 782 782 785 788 792 798 801 803 807 811 817 821 824 825 827 828 828 829 831 832 834 834 835 837 838 838 839 839 839 841 842 842
763 773 775 758 743 751 760 763 756 749 758 769 772 764 771 774 771 774 777 781 785 789 797 799 802 806 810 815 819 822 823 824 826 828 827 828 829 830 832 833 834 835 835 836 837 838 838 838 839
761 772 772 753 739 751 755 760 751 747 754 758 763 762 765 769 770 771 774 778 784 787 791 795 801 804 808 812 817 821 821 822 822 823 825 827 826 828 829 830 831 831 832 832 831 832 835 836 837
762 772 768 763 742 739 747 767 761 746 743 746 749 750 755 760 765 767 771 775 779 784 789 793 799 802 806 810 815 819 820 823 824 823 821 822 825 825 826 825 826 827 827 829 829 830 830 830 831
775 744 742 749 763 792 752 809 769 757 753 745 746 749 752 756 759 761 766 771 776 781 787 793 798 801 805 809 811 815 817 819 817 819 822 823 823 823 822 822 824 826 827 827 828 829 829 830 829
758 736 746 749 764 765 761 791 772 750 761 753 747 743 744 746 751 757 761 768 774 780 785 791 796 799 803 806 808 810 810 812 815 816 821 822 821 821 820 819 820 822 824 824 826 827 828 828 827
729 743 751 753 766 801 769 781 782 764 752 747 739 736 734 741 745 749 757 766 773 777 782 786 791 796 801 803 804 806 809 813 814 816 817 819 820 820 819 818 819 819 820 820 821 822 823 823 823
738 761 802 802 806 811 761 774 766 735 729 727 735 734 731 734 740 746 755 764 770 773 780 788 796 800 801 804 804 806 810 813 814 814 816 817 815 814 815 813 814 814 814 815 815 816 817 817 818
749 759 797 812 813 799 753 771 757 721 716 719 720 724 731 737 739 744 751 760 769 778 784 791 800 807 810 814 812 805 804 808 813 815 815 817 818 816 815 812 811 810 811 812 812 811 812 813 812
744 763 739 769 761 786 771 760 730 723 722 719 722 734 738 743 751 754 757 764 777 786 790 790 798 804 808 811 810 806 807 808 809 814 815 816 816 817 818 812 809 807 807 807 808 808 806 807 806
730 726 762 772 799 803 773 788 789 756 741 731 736 742 749 748 754 758 760 766 769 774 782 786 786 791 799 806 807 806 803 807 810 813 815 815 815 815 816 813 810 807 805 805 804 803 801 801 800
737 747 741 756 772 793 805 809 754 754 741 740 745 746 748 750 752 755 757 764 765 766 779 784 784 794 796 796 799 802 802 801 809 812 812 812 811 813 814 809 806 803 802 801 801 799 798 797 795
721 731 737 776 778 767 787 798 736 738 736 739 747 746 749 750 753 756 761 767 771 776 778 784 791 794 788 790 800 799 800 801 805 810 810 811 810 811 810 805 802 800 798 797 796 795 794 794 791